Saginaw Browne, MI

8:24 PM EDT on May 23, 2017 (GMT -0400)
Saginaw County-Browne

Weather History for KHYX - July, 2013

Change the Weather History Date:

Wednesday, July 10, 2013

  Actual Average (KMBS) Record (KMBS)
Temperature  
Mean Temperature 75 °F -  
Max Temperature 86 °F 80 °F 90 °F (2007)
Min Temperature 64 °F 57 °F 50 °F (1996)
Cooling Degree Days 10    
Growing Degree Days 25 (Base 50)    
Moisture  
Dew Point 67 °F    
Average Humidity 75    
Maximum Humidity 100    
Minimum Humidity 44    
Precipitation  
Precipitation 0.00 in - - ()
Sea Level Pressure  
Sea Level Pressure 29.82 in    
Wind  
Wind Speed 10 mph (West)    
Max Wind Speed 20 mph    
Max Gust Speed 28 mph    
Visibility 9 miles    
Events      
Averages and records for this station are not official NWS values.
T = Trace of Precipitation, MM = Missing Value Source: NWS Daily Summary

Daily Weather History Graph

Daily Weather History Graph

Search for Another Location

Airport or City:

Trip Planner

Search our weather history database for the weather conditions in past years. The results will help you decide how hot, cold, wet, or windy it might be!

Date:

Astronomy

Jul. 10, 2013 Rise Set
Actual Time 6:04 AM EDT 9:16 PM EDT
Civil Twilight 5:29 AM EDT 9:51 PM EDT
Nautical Twilight 4:44 AM EDT 10:36 PM EDT
Astronomical Twilight 3:49 AM EDT 11:30 PM EDT
Moon 8:30 AM EDT (7/10) 10:19 PM EDT (7/10)
Length of Visible Light 16h 21m
Length of Day
15h 12m
Waxing Crescent, 5% of the Moon is Illuminated
Jul 10
Waxing Crescent
Jul 15
First Quarter
Jul 22
Full
Jul 29
Last Quarter
Aug 6
New

Hourly Weather History & Observations

Time (EDT) Temp. Heat Index Dew Point Humidity Pressure Visibility Wind Dir Wind Speed Gust Speed Precip Events Conditions
12:14 AM 73.4 °F - 73.4 °F 100% 29.84 in 7.0 mi SSW 9.2 mph - N/A   Scattered Clouds
12:34 AM 73.4 °F - 73.4 °F 100% 29.84 in 5.0 mi SW 8.1 mph - N/A   Scattered Clouds
12:55 AM 73.4 °F - 73.4 °F 100% 29.82 in 5.0 mi SW 6.9 mph - N/A   Scattered Clouds
1:10 AM 73.4 °F - 73.4 °F 100% 29.82 in 4.0 mi SW 5.8 mph - N/A   Clear
1:30 AM 73.4 °F - 73.4 °F 100% 29.80 in 4.0 mi SSW 5.8 mph - N/A   Clear
1:50 AM 73.4 °F - 73.4 °F 100% 29.80 in 4.0 mi SSW 6.9 mph - N/A   Clear
2:10 AM 73.4 °F - 73.4 °F 100% 29.79 in 4.0 mi SSW 5.8 mph - N/A   Clear
2:30 AM 73.4 °F - 73.4 °F 100% 29.79 in 5.0 mi SW 8.1 mph - N/A   Clear
2:50 AM 73.4 °F - 73.4 °F 100% 29.78 in 5.0 mi SW 9.2 mph - N/A   Clear
3:10 AM 73.4 °F - 73.4 °F 100% 29.77 in 5.0 mi SW 10.4 mph - N/A   Clear
3:31 AM 73.4 °F - 73.4 °F 100% 29.77 in 5.0 mi SW 9.2 mph - N/A   Clear
3:51 AM 73.4 °F - 73.4 °F 100% 29.77 in 5.0 mi SW 6.9 mph - N/A   Scattered Clouds
4:11 AM 73.4 °F - 73.4 °F 100% 29.77 in 5.0 mi WSW 9.2 mph - N/A   Mostly Cloudy
4:31 AM 75.2 °F - 75.2 °F 100% 29.77 in 7.0 mi WSW 9.2 mph - N/A   Scattered Clouds
4:51 AM 75.2 °F - 75.2 °F 100% 29.78 in 7.0 mi WSW 9.2 mph - N/A   Scattered Clouds
5:11 AM 75.2 °F - 75.2 °F 100% 29.77 in 7.0 mi WSW 9.2 mph - N/A   Mostly Cloudy
5:31 AM 75.2 °F - 75.2 °F 100% 29.78 in 7.0 mi WSW 9.2 mph - N/A   Scattered Clouds
5:51 AM 73.4 °F - 73.4 °F 100% 29.79 in 7.0 mi WSW 8.1 mph - N/A   Clear
6:12 AM 73.4 °F - 73.4 °F 100% 29.79 in 5.0 mi WSW 9.2 mph - N/A   Clear
6:32 AM 73.4 °F - 73.4 °F 100% 29.79 in 5.0 mi WSW 10.4 mph - N/A   Clear
6:52 AM 73.4 °F - 73.4 °F 100% 29.80 in 7.0 mi West 10.4 mph - N/A   Clear
7:12 AM 75.2 °F - 73.4 °F 94% 29.80 in 7.0 mi WSW 9.2 mph - N/A   Clear
7:32 AM 75.2 °F - 73.4 °F 94% 29.80 in 10.0 mi WSW 8.1 mph - N/A   Clear
7:52 AM 77.0 °F - 73.4 °F 89% 29.81 in 10.0 mi WSW 10.4 mph - N/A   Clear
8:12 AM 77.0 °F - 73.4 °F 89% 29.81 in 10.0 mi West 9.2 mph 18.4 mph N/A   Clear
8:32 AM 78.8 °F - 73.4 °F 83% 29.79 in 10.0 mi West 8.1 mph - N/A   Clear
8:52 AM 77.0 °F - 73.4 °F 89% 29.80 in 10.0 mi West 11.5 mph 16.1 mph N/A   Clear
9:12 AM 78.8 °F - 71.6 °F 78% 29.79 in 10.0 mi WNW 12.7 mph - N/A   Clear
9:32 AM 80.6 °F 84.6 °F 71.6 °F 74% 29.79 in 10.0 mi West 9.2 mph - N/A   Clear
9:52 AM 80.6 °F 84.6 °F 71.6 °F 74% 29.79 in 10.0 mi WNW 13.8 mph - N/A   Clear
10:12 AM 80.6 °F 84.6 °F 71.6 °F 74% 29.80 in 10.0 mi West 9.2 mph - N/A   Clear
10:33 AM 80.6 °F 84.6 °F 71.6 °F 74% 29.79 in 10.0 mi WNW 8.1 mph - N/A   Clear
10:53 AM 82.4 °F 87.2 °F 71.6 °F 70% 29.79 in 10.0 mi West 10.4 mph 18.4 mph N/A   Scattered Clouds
11:13 AM 82.4 °F 87.2 °F 71.6 °F 70% 29.79 in 10.0 mi WSW 12.7 mph 16.1 mph N/A   Mostly Cloudy
11:33 AM 82.4 °F 87.2 °F 71.6 °F 70% 29.79 in 10.0 mi WSW 12.7 mph 18.4 mph N/A   Scattered Clouds
11:53 AM 82.4 °F 87.2 °F 71.6 °F 70% 29.79 in 10.0 mi WSW 10.4 mph 17.3 mph N/A   Mostly Cloudy
12:13 PM 82.4 °F 87.2 °F 71.6 °F 70% 29.78 in 10.0 mi WSW 12.7 mph 17.3 mph N/A   Mostly Cloudy
12:33 PM 84.2 °F 89.6 °F 71.6 °F 66% 29.78 in 10.0 mi WSW 11.5 mph 19.6 mph N/A   Scattered Clouds
12:53 PM 82.4 °F 86.3 °F 69.8 °F 66% 29.78 in 10.0 mi West 10.4 mph - N/A   Mostly Cloudy
1:14 PM 84.2 °F 89.6 °F 71.6 °F 66% 29.78 in 10.0 mi West 11.5 mph 17.3 mph N/A   Mostly Cloudy
1:34 PM 86.0 °F 91.8 °F 71.6 °F 62% 29.78 in 10.0 mi West 15.0 mph 19.6 mph N/A   Mostly Cloudy
1:54 PM 86.0 °F 90.4 °F 69.8 °F 58% 29.78 in 10.0 mi WNW 17.3 mph - N/A   Mostly Cloudy
2:14 PM 84.2 °F 87.3 °F 68.0 °F 58% 29.79 in 10.0 mi West 17.3 mph 21.9 mph N/A   Scattered Clouds
2:34 PM 82.4 °F 85.4 °F 68.0 °F 62% 29.78 in 10.0 mi NW 17.3 mph 24.2 mph N/A   Scattered Clouds
2:54 PM 82.4 °F 84.6 °F 66.2 °F 58% 29.79 in 10.0 mi NW 16.1 mph 27.6 mph N/A   Scattered Clouds
3:14 PM 82.4 °F 84.6 °F 66.2 °F 58% 29.81 in 10.0 mi NW 16.1 mph 25.3 mph N/A   Mostly Cloudy
3:34 PM 80.6 °F 81.8 °F 62.6 °F 54% 29.81 in 10.0 mi WNW 19.6 mph 23.0 mph N/A   Mostly Cloudy
3:54 PM 82.4 °F 83.9 °F 64.4 °F 54% 29.82 in 10.0 mi WNW 16.1 mph 20.7 mph N/A   Scattered Clouds
4:15 PM 80.6 °F 81.8 °F 62.6 °F 54% 29.82 in 10.0 mi NW 17.3 mph 20.7 mph N/A   Scattered Clouds
4:35 PM 80.6 °F 81.5 °F 60.8 °F 51% 29.82 in 10.0 mi NW 17.3 mph 26.5 mph N/A   Scattered Clouds
4:50 PM 78.8 °F - 59.0 °F 51% 29.82 in 10.0 mi NW 15.0 mph 23.0 mph N/A   Scattered Clouds
5:10 PM 78.8 °F - 59.0 °F 51% 29.83 in 10.0 mi NW 15.0 mph 26.5 mph N/A   Scattered Clouds
5:30 PM 77.0 °F - 57.2 °F 50% 29.83 in 10.0 mi NNW 15.0 mph 25.3 mph N/A   Clear
5:50 PM 78.8 °F - 57.2 °F 47% 29.84 in 10.0 mi NW 12.7 mph 21.9 mph N/A   Scattered Clouds
6:10 PM 77.0 °F - 55.4 °F 47% 29.84 in 10.0 mi NNW 11.5 mph 25.3 mph N/A   Scattered Clouds
6:30 PM 77.0 °F - 53.6 °F 44% 29.84 in 10.0 mi NNW 17.3 mph 21.9 mph N/A   Scattered Clouds
6:50 PM 77.0 °F - 55.4 °F 47% 29.85 in 10.0 mi NNW 13.8 mph 19.6 mph N/A   Scattered Clouds
7:10 PM 77.0 °F - 53.6 °F 44% 29.85 in 10.0 mi NNW 13.8 mph 18.4 mph N/A   Scattered Clouds
7:30 PM 75.2 °F - 53.6 °F 47% 29.85 in 10.0 mi NW 13.8 mph 19.6 mph N/A   Clear
7:50 PM 73.4 °F - 55.4 °F 53% 29.86 in 10.0 mi NW 11.5 mph - N/A   Scattered Clouds
8:10 PM 73.4 °F - 55.4 °F 53% 29.87 in 10.0 mi NNW 10.4 mph 17.3 mph N/A   Scattered Clouds
8:31 PM 71.6 °F - 55.4 °F 57% 29.89 in 10.0 mi NNW 8.1 mph - N/A   Clear
8:51 PM 71.6 °F - 57.2 °F 60% 29.90 in 10.0 mi NNW 5.8 mph - N/A   Clear
9:11 PM 69.8 °F - 55.4 °F 60% 29.91 in 10.0 mi NNW 6.9 mph - N/A   Clear
9:31 PM 69.8 °F - 55.4 °F 60% 29.92 in 10.0 mi NNW 5.8 mph - N/A   Clear
9:51 PM 68.0 °F - 55.4 °F 64% 29.93 in 10.0 mi NNW 5.8 mph - N/A   Clear
10:11 PM 68.0 °F - 57.2 °F 68% 29.94 in 10.0 mi NNW 4.6 mph - N/A   Clear
10:31 PM 66.2 °F - 57.2 °F 73% 29.95 in 10.0 mi NNW 4.6 mph - N/A   Clear
10:51 PM 66.2 °F - 57.2 °F 73% 29.96 in 10.0 mi NNW 3.5 mph - N/A   Clear
11:12 PM 64.4 °F - 55.4 °F 73% 29.96 in 10.0 mi NW 4.6 mph - N/A   Clear
11:32 PM 64.4 °F - 55.4 °F 73% 29.96 in 10.0 mi NW 3.5 mph - N/A   Clear
11:52 PM 64.4 °F - 57.2 °F 77% 29.96 in 10.0 mi NNW 3.5 mph - N/A   Clear